Voltar ao catálogo

OPTUS D1

AtivoComunicaçõesGEO
NORAD 29495·PAYLOAD·🇦🇺 Australia

Lançado Oct 13, 2006 de Guiana Space Centre

Loading…

TLE

AtualizadoSource: Space-Track

Época: Sep 14, 2026, 15:19 UTC

1 29495U 06043B   26257.63832590 -.00000191  00000-0  00000-0 0  9992
2 29495   3.2590  78.4819 0003555  91.7586 205.1392  1.00270720 73013

Acompanhe OPTUS D1 em tempo real com AllMySat

Download on the App Store